Regional Weather Roundup
Issued by NWS

Home | Current Version | Previous Version | Graphics & Text | Print | Product List | Glossary Off
Versions: 1 2 3 4 5 6 7 8 9 10 11 12 13 14 15 16 17 18 19 20 21 22 23 24 25 26 27 28 29 30 31 32 33 34 35 36 37 38 39 40 41 42 43 44 45 46 47 48 49 50

000
ASUS43 KLSX 231410
RWRMO

WEATHER SUMMARY FOR MISSOURI
NATIONAL WEATHER SERVICE SPRINGFIELD MO
900 AM CDT MON APR 23 2018

NOTE: "FAIR" INDICATES FEW OR NO CLOUDS BELOW 12,000 FEET WITH NO
       SIGNIFICANT WEATHER AND/OR OBSTRUCTIONS TO VISIBILITY.
       CURRENT SKY AND/OR WEATHER CONDITIONS ARE NOT AVAILABLE FOR
       CHILLICOTHE AND FARMINGTON.

MOZ001>031-035>038-043-044-053-054-231500-
...NORTHERN AND WESTERN MISSOURI...

CITY           SKY/WX    TMP DP  RH WIND       PRES   REMARKS
KANSAS CTY INT MOSUNNY   59  34  39 NE12      30.13R
KANSAS C DTWN  SUNNY     59  33  37 N5        30.11R
LEE`S SUMMIT   PTSUNNY   56  35  45 N10       30.11S
ST JOSEPH      CLOUDY    55  36  48 N8        30.15S
CHILLICOTHE      N/A     56  33  42 NE12G20   30.13S
KIRKSVILLE     CLOUDY    53  34  48 NE12      30.13F

$$
MOZ066>068-077>081-088>096-101>105-231500-
...SOUTHWEST MISSOURI...

CITY           SKY/WX    TMP DP  RH WIND       PRES   REMARKS
SPRINGFIELD    CLOUDY    54  50  86 N13       30.01S
JOPLIN         CLOUDY    55  47  74 N10G21    30.05S
BRANSON        CLOUDY    54  52  94 NW14      29.99R

$$
MOZ032>034-039>042-045>050-055>058-069>072-231500-
...CENTRAL MISSOURI...

CITY           SKY/WX    TMP DP  RH WIND       PRES   REMARKS
COLUMBIA       CLOUDY    55  35  47 N16       30.04F
JEFFERSON CITY CLOUDY    57  35  43 N13       30.02F
ROLLA          PTSUNNY   56  41  57 N15       29.98F
SEDALIA        CLOUDY    57  40  52 N13       30.07S
WARRENSBURG    CLOUDY    54  36  50 N6        30.08S
OSAGE BEACH    CLOUDY    54  40  59 N8        30.02S

$$
MOZ051-052-059>065-231500-
...EAST CENTRAL MISSOURI...

CITY           SKY/WX    TMP DP  RH WIND       PRES   REMARKS
ST LOUIS INTL  LGT RAIN  50  44  80 NE16G24   30.00S
SPIRIT OF STL    N/A     53  42  66 NE15G23   30.00R
ST CHARLES     CLOUDY    54  40  59 NE15G24   30.01S

$$
MOZ072>076-082>087-097>100-106>115-231500-
...SOUTH CENTRAL AND SOUTHEAST MISSOURI...

CITY           SKY/WX    TMP DP  RH WIND       PRES   REMARKS
CAPE GIRARDEAU LGT RAIN  57  56  96 E12       29.82R FOG
FARMINGTON     LGT RAIN  49  48  97 N12G20    29.92S FOG
POPLAR BLUFF   LGT RAIN  52  51  97 N10       29.84R FOG
WEST PLAINS    CLOUDY    50  48  93 N10       29.93R

$$




USA.gov is the U.S. government's official web portal to all federal, state and local government web resources and services.